Orbital Elements at Epoch 2459200.5 (2020-Dec-17.0) TDB
Reference: JPL 15 (heliocentric ecliptic J2000)
Element | Value | Uncertainty (1-sigma) | Units |
e | .06881576727885157 | 6.4386e-08 | |
a | 2.857148294671466 | 2.7706e-08 | au |
q | 2.660531442544187 | 1.8374e-07 | au |
i | 4.685611710645939 | 6.2635e-06 | deg |
node | 281.8228063349287 | 7.6067e-05 | deg |
peri | 121.2798115182618 | 9.8098e-05 | deg |
M | 67.03218329267553 | 5.8741e-05 | deg |
tp | 2458872.043043548250 (2020-Jan-23.54304355) | 0.00028732 | TDB |
period | 1763.996016754394 4.83 | 2.5659e-05 7.025e-08 | d yr |
n | .2040820934858856 | 2.9685e-09 | deg/d |
Q | 3.053765146798745 | 2.9613e-08 | au |
|
| | Orbit Determination Parameters
Additional Information
|